STARLINK-11379, 62089

Orbit data source: Space-Track

STARLINK-11379, 62089 is a payload satellite owned by SpaceX/Seattle (US) in LEO that was launched on Mon, 25 Nov 2024 UTC via an FALCON 9 launch vehicle from the Air Force Eastern Test Range (AFETR). Payload-class satellites include a variety of spacecraft equipped with specific instruments for various scientific and technological missions. These include communications satellites like Starlink; space stations such as the ISS; scientific satellites like the Hubble; Earth observation satellites from companies like Planet Labs, Umbra, and HawkEye 360; GPS; miniature CubeSats for education and research; and military/defense satellites.

Loading next visibility...
Identifier
62089, 2024-220B
Orbit
LEO
Country
Flag of USUS
Related business
Manufacturer
SpaceX/Seattle
Mission
Operational Commercial Communications
Bus & Motor
STARLINK V2MD, Unknown motor
Mass
960 kg wet, ~910 kg dry
Launch date (UTC)
2024-11-25 (2 years ago)
Launch vehicle
FALCON 9
Launch site
Air Force Eastern Test Range (AFETR)
Object type
Payload
Rocket body
Debris
Shape & HBR
Box + 2 Pan, 18.1 m
Radar Cross Section
36.964 m², Large (>1 m²)

Expand to show TLE details & history
Last TLE update: 14 hours ago

TLE from 14 hours ago
0 STARLINK-11379
1 62089U 24220B   26171.33747103  .00213332  00000-0  16250-2 0  9990
2 62089  43.0001 144.6494 0001260 282.3922  77.6805 15.70821569 91090
Epoch: 2026-06-20T08:05Z
TLE epoch observation values (Epoch: 2026-06-20T08:05:57.496Z)
Latitude
0.00003°
Longitude
114.60632°
Altitude
356.138 km
Speed
7.697 km/s
True Right ascension
09h 38m 35s
True Declination
0° 00' 00"
Sunlit
Object was in daylight at epoch
Visualization orbit readout
Latitude
Unknown
Longitude
Unknown
Altitude
Unknown
Speed
Unknown
Apparent Right ascension
Unknown
Apparent Declination
Unknown
Sunlit
N/A
Visualization observer readout
Local Sidereal Time
08:33:02
Azimuth
Unknown
Elevation
Unknown
Doppler factor
Unknown
Orbital elements
Apogee altitude
359.378 km
Perigee altitude
357.68 km
Semi-major axis
6,736.666 km
Eccentricity
0.00013
Inclination
43.0001°
RAAN
144.6494°
Arg. of periapsis
282.3922°
True anomaly
77.69461°
Mean anomaly
77.6805°
Eccentric anomaly
77.68755°
Mean motion
3.92532 °/min
Orbital period
91.71 mins
BSTAR
0.001625
Loading maneuver chart data...
Computing Atmospheric mass density...
Loading historical data...
Loading historical data...
Loading historical data...
Loading historical data...
Loading historical data...
Loading historical data...
Loading historical data...

Documentation

Showing up to 5 results
|